#timestamp,LO_Frequency,Hit,StdDev 
1504828815.0,286046998.1,N,1.0
1504828815.9,286046998.1,N,1.1
1504828835.8,286046996.5,Y,0.0
1504828855.6,286046996.8,P,1.7
1504828875.4,286046997.9,N,1.4
1504828895.3,286046995.4,P,1.8
1504828915.1,286046998.0,N,1.6
1504828935.8,286046998.0,N,1.5
1504828955.7,286046997.6,N,1.3
1504828975.5,286046996.7,N,1.3
1504828995.4,286046996.5,N,1.3
1504829015.2,286046997.2,N,1.2
1504829035.0,286046997.2,N,1.2
1504829035.9,286046997.2,N,1.1
1504829055.8,286046996.6,Y,0.0
1504829075.6,286047000.2,P,1.4
1504829095.5,286047002.3,N,2.0
1504829115.3,286047001.8,N,1.9
1504829135.1,286047002.1,N,1.8
1504829155.9,286046999.9,N,1.7
1504829175.7,286047002.2,N,1.7
1504829195.6,286047001.6,N,1.6
1504829215.4,286047004.0,N,1.8
1504829235.2,286047002.1,N,1.7
1504829255.1,286047002.0,N,1.6
1504829256.0,286047002.0,N,1.6
1504829275.8,286047001.7,N,1.5
1504829295.6,286047004.4,N,1.6
1504829315.5,286047001.4,N,1.6
1504829335.3,286047004.2,N,1.7
1504829355.2,286047006.0,Y,0.0
1504829375.0,286047002.6,P,0.4
1504829375.9,286047002.6,P,0.4
1504829395.7,286047002.5,P,0.3
1504829415.6,286047001.5,Y,0.0
1504829435.4,286047000.6,P,0.9
1504829455.3,286047000.4,N,0.9
1504829475.1,286047002.8,P,1.1
1504829495.8,286042596.7,Y,0.0
1504829515.7,286046998.8,P,1.4
1504829535.5,286046998.2,N,1.5
1504829555.4,286047000.7,N,1.4
1504829575.2,286047000.8,N,1.3
1504829595.0,286047000.6,N,1.2
1504829595.9,286047000.6,N,1.1
1504829615.8,286047000.9,N,1.1
1504829635.6,286047000.9,N,1.0
1504829655.5,286046998.2,N,1.2
1504829675.3,286047000.7,N,1.1
1504829695.1,286047001.1,N,1.1
1504829715.9,286047000.9,N,1.1
1504829735.7,286047000.9,N,1.0
1504829755.6,286047000.8,N,1.0
1504829775.4,286046999.8,N,1.0
1504829795.2,286047002.6,N,1.1
1504829815.1,286047002.0,N,1.1
1504829816.0,286047002.0,N,1.1
1504829835.8,286047002.2,N,1.2
1504829855.6,286047002.3,N,1.2
1504829875.5,286047002.5,N,1.2
1504829895.3,286047001.4,N,1.2
1504829915.2,286047001.9,N,1.2
1504829935.9,286047003.9,Y,0.0
1504829955.7,286047002.1,P,0.6
1504829975.6,286047002.5,P,0.7
1504829995.4,286047001.6,N,0.6
1504830015.3,286047002.1,Y,0.0
1504830035.1,286046999.3,P,1.2
1504830036.0,286046999.3,N,1.2
1504830055.8,286046998.8,N,1.2
1504830075.7,286046999.0,N,1.1
1504830095.5,286046999.2,N,1.0
1504830115.4,286046998.3,N,1.0
1504830135.2,286046999.0,N,1.0
1504830155.0,286046998.1,N,1.0
1504830155.9,286046998.1,N,1.0
1504830175.8,286046998.7,N,1.0
1504830195.6,286046999.0,N,0.9
1504830215.5,286046999.6,N,0.9
1504830235.3,286046998.5,N,0.9
1504830255.1,286047001.0,N,1.0
1504830275.9,286046998.5,N,1.0
1504830295.7,286047001.0,N,1.0
1504830315.5,286046998.3,N,1.0
1504830335.4,286046998.8,N,1.0
1504830355.2,286046998.1,N,1.0
1504830375.1,286047000.7,N,1.0
1504830376.0,286047000.7,N,1.1
1504830395.8,286047001.1,N,1.1
1504830415.6,286047000.1,N,1.1
1504830435.5,286047000.0,N,1.1
1504830455.3,286046999.7,N,1.1
1504830475.2,286047001.0,N,1.1
1504830495.9,286047000.6,N,1.1
1504830515.7,286047001.2,N,1.1
1504830535.6,286047001.0,N,1.1
1504830555.4,286047000.4,N,1.1
1504830575.2,286047002.7,N,1.2
1504830595.1,286047002.2,N,1.3
1504830596.0,286047002.2,N,1.3
1504830615.8,286047002.7,N,1.4
1504830635.7,286047002.0,N,1.4
1504830655.5,286047001.5,N,1.4
1504830675.3,286047001.4,N,1.4
1504830695.2,286047001.9,N,1.4
1504830715.0,286047002.2,N,1.4
1504830715.9,286047002.2,N,1.3
1504830735.8,286047001.5,N,1.3
1504830755.6,286047001.6,N,1.3
1504830775.4,286047002.7,N,1.3
1504830795.3,286047001.7,N,1.3
1504830815.1,286047002.1,N,1.2
1504830835.9,286047002.3,N,1.2
1504830855.7,286047001.9,N,1.1
1504830875.5,286047002.4,N,1.0
1504830895.4,286047002.6,N,0.8
1504830915.2,286047002.0,N,0.8
1504830935.0,286046999.8,N,0.9
1504830936.0,286046999.8,N,0.9
1504830955.8,286046999.7,N,1.0
1504830975.6,286047000.4,N,0.9
1504830995.5,286047000.1,N,0.9
1504831015.3,286047001.5,N,0.9
1504831035.1,286047002.1,N,0.9
1504831055.9,286047001.9,N,0.9
1504831075.7,286047004.0,Y,0.0
1504831095.6,286047002.4,P,0.4
1504831115.4,286047002.2,P,0.3
1504831135.2,286046999.9,N,1.0
1504831155.1,286047000.3,N,1.0
1504831156.0,286047000.3,N,1.0
1504831175.8,286046999.8,N,1.0
1504831195.7,286046999.9,N,1.0
1504831215.5,286047000.2,N,1.0
1504831235.3,286047000.1,N,0.9
1504831255.2,286047000.1,N,0.9
1504831275.0,286047002.6,N,1.0
1504831275.9,286047002.6,N,1.1
1504831295.8,286046999.7,N,1.1
1504831315.6,286047000.1,N,1.1
1504831335.4,286047000.5,N,1.1
1504831355.3,286047000.1,N,1.0
1504831375.1,286046999.7,N,1.0
1504831395.8,286046999.7,N,1.0
1504831415.7,286047002.8,N,1.1
1504831435.5,286046999.7,N,1.1
1504831455.4,286047002.3,N,1.1
1504831475.2,286046999.7,N,1.1
1504831495.0,286047002.7,N,1.2
1504831495.9,286047002.7,N,1.2
1504831515.8,286047002.5,N,1.2
1504831535.6,286047002.7,N,1.2
1504831555.5,286046999.8,N,1.2
1504831575.3,286047002.3,N,1.2
1504831595.1,286047002.0,N,1.2
1504831615.9,286047002.7,N,1.3
1504831635.7,286047000.0,N,1.3
1504831655.5,286047002.3,N,1.3
1504831675.4,286047002.6,N,1.3
1504831695.2,286047004.2,Y,0.0
1504831715.1,286047000.5,P,0.3
1504831716.0,286047000.5,N,0.3
1504831735.8,286047000.1,N,0.4
1504831755.6,286047000.5,N,0.3
1504831775.5,286047000.3,N,0.3
1504831795.3,286047002.2,Y,0.0
1504831815.2,286046999.7,P,0.4
1504831835.9,286047000.0,N,0.3
1504831855.7,286047000.4,N,0.3
1504831875.6,286047002.1,Y,0.0
1504831895.4,286047000.2,P,0.0
1504831915.3,286047002.6,P,1.1
1504831935.1,286047002.7,N,1.2
1504831936.0,286043290.6,Y,0.0
1504831955.8,286047001.0,P,0.2
1504831975.7,286047000.9,P,0.2
1504831995.5,286047000.4,N,0.4
1504832015.4,286046998.4,Y,0.0
1504832035.2,286046996.6,P,2.2
1504832055.0,286046997.2,N,1.9
1504832055.9,286046997.2,N,1.7
1504832075.8,286046998.7,N,1.6
1504832095.6,286046999.4,N,1.5
1504832115.4,286046999.3,N,1.4
1504832135.3,286046996.5,N,1.5
1504832155.1,286046996.7,N,1.5
1504832175.9,286046997.0,N,1.4
1504832195.7,286046996.7,N,1.4
1504832215.5,286046999.0,N,1.4
1504832235.4,286046998.9,N,1.4
1504832255.2,286046996.7,N,1.4
1504832275.1,286046997.1,N,1.3
1504832276.0,286046997.1,N,1.3
1504832295.8,286046997.4,N,1.3
1504832315.6,286046997.3,N,1.2
1504832335.5,286046999.2,N,1.2
1504832355.3,286046996.6,N,1.2
1504832375.1,286047000.8,N,1.4
1504832395.9,286047000.9,N,1.5
